Dewpoint
29 30 34 43 49 53 59 60 61 62 62 61 60 60 58 58 58 58 56 53 52 51 52 52 51 52 53 53 52 50 47 46 48 45 44 45 51 55 55 55 56 56 55
26 26 29 40 46 51 57 60 61 61 62 61 61 60 60 59 58 57 56 54 51 51 51 50 50 52 52 52 52 49 46 45 46 45 44 43 44 45 55 55 55 54 55
38 42 43 42 43 48 54 59 60 61 61 61 61 60 59 59 57 56 55 54 51 51 51 50 49 52 52 52 51 48 46 46 44 46 43 40 43 42 44 53 53 52 53
38 39 40 42 44 46 50 58 60 60 60 60 59 58 58 57 57 55 54 53 51 50 50 50 48 51 52 52 51 49 46 47 44 44 43 41 41 42 41 43 52 51 50
37 39 40 42 44 46 49 56 59 59 59 59 59 57 56 58 57 56 54 53 51 49 49 49 48 50 52 52 51 49 46 47 46 46 42 42 40 40 41 41 44 49 50
34 34 36 38 39 41 46 51 58 58 58 58 58 57 56 55 56 56 55 53 51 49 48 48 48 48 51 51 51 49 46 46 46 44 43 42 40 39 39 40 41 49 46
31 32 33 34 36 37 40 47 52 57 57 58 57 57 56 55 55 56 54 52 50 48 47 47 47 48 50 51 51 49 47 46 45 44 43 44 42 41 40 41 42 43 42
29 30 31 32 34 35 38 40 45 54 54 57 57 57 57 57 57 56 56 54 51 48 48 46 46 47 48 50 50 50 48 46 46 44 44 44 44 43 42 42 42 40 40
27 28 29 31 33 34 36 39 41 46 51 54 55 55 57 57 57 56 57 56 53 49 47 47 45 46 47 48 49 49 48 46 45 44 44 43 44 45 43 43 43 42 39
26 27 28 29 31 33 35 37 40 42 48 51 55 55 56 56 57 58 57 57 55 52 47 46 45 45 46 48 48 48 47 46 45 45 44 44 45 45 44 43 42 41 41
26 27 28 29 30 32 33 36 38 42 44 48 54 54 54 54 54 55 57 57 55 51 48 47 47 45 47 48 48 48 47 46 46 45 44 44 44 44 44 43 42 41 40
24 25 26 28 29 30 32 34 36 38 40 44 50 53 53 54 54 54 54 54 53 53 52 51 49 48 48 50 50 48 48 47 46 47 45 44 44 44 44 43 41 41 41
23 23 25 26 28 29 30 33 34 35 38 40 43 45 47 52 54 54 54 53 53 53 53 52 51 50 49 49 49 48 48 48 47 47 47 46 45 44 44 43 42 42 42
23 23 24 25 27 29 30 33 32 35 35 37 38 40 42 44 50 53 53 53 52 52 52 52 51 51 50 49 48 47 48 49 48 48 48 48 46 45 44 44 43 42 42
20 22 23 25 26 27 29 32 31 32 34 34 36 37 39 41 44 46 53 53 53 52 51 52 52 51 50 49 47 46 46 47 47 47 48 48 47 46 46 45 44 43 42
18 20 22 24 25 26 28 30 31 31 32 32 33 34 36 38 40 42 44 47 52 52 52 52 51 51 51 49 48 48 47 45 45 45 45 46 45 46 47 47 46 45 42
19 19 21 23 24 26 28 28 29 29 30 31 31 32 34 35 37 39 40 42 45 48 51 51 51 51 51 50 50 48 48 48 47 46 45 45 46 46 47 47 47 46 46
18 19 21 23 23 25 27 28 28 26 26 27 29 32 33 34 36 36 38 39 42 44 46 47 49 50 50 49 49 48 49 48 48 47 47 47 46 46 46 46 45 45 46
19 20 22 23 23 23 26 26 26 27 25 25 26 29 31 31 32 34 36 37 40 41 43 44 45 47 47 47 48 48 47 46 46 46 46 46 45 46 47 45 44 42 42
20 20 21 23 22 22 24 24 24 24 25 26 26 28 30 30 31 32 35 37 38 39 41 42 43 44 45 46 47 47 45 44 43 43 43 45 44 45 46 45 41 38 37
19 21 21 20 21 22 23 22 23 22 26 28 28 27 28 29 30 31 33 35 36 36 37 38 40 40 42 43 45 46 44 43 41 41 40 41 43 43 45 42 39 38 37
16 17 18 19 21 21 21 20 20 23 25 27 28 29 28 29 29 30 31 33 34 35 35 35 36 37 38 41 43 45 45 43 41 40 40 39 42 43 44 39 39 39 36
15 16 17 17 18 17 19 18 19 21 22 23 24 28 30 30 28 28 30 30 32 33 34 34 34 35 36 38 41 45 44 43 40 40 40 40 41 42 41 38 38 37 31
10 12 14 15 15 15 16 18 18 20 20 21 22 25 26 28 30 29 29 29 30 32 32 32 33 34 36 36 38 40 42 40 39 40 40 40 41 41 38 37 38 31 30
9 10 11 12 13 14 15 17 18 20 20 22 22 25 24 25 26 28 28 29 30 31 31 32 33 34 34 36 38 39 40 38 38 38 38 36 36 35 35 34 31 31 31
10 10 10 12 13 14 15 17 19 20 20 21 21 24 24 24 25 26 26 29 30 30 30 31 32 31 33 35 36 39 39 41 40 36 34 33 34 34 33 32 31 32 32
Lifted_Index
8 8 8 8 7 6 3 1 0 0 1 1 2 2 2 2 2 3 4 6 6 6 7 7 7 7 7 6 6 6 6 6 7 7 7 7 6 5 4 4 3 3 3
8 8 9 8 8 6 4 2 1 1 1 1 2 2 2 2 2 3 4 5 6 6 7 7 7 7 7 6 6 6 6 6 6 7 7 7 7 5 4 4 3 3 3
9 9 9 9 8 7 5 2 1 1 1 2 2 2 3 3 3 3 4 4 5 6 6 7 7 7 7 6 6 5 5 6 6 6 7 8 8 7 5 5 4 4 4
9 9 9 9 9 7 5 3 2 1 1 2 2 3 3 3 3 3 4 4 5 5 6 7 7 8 7 6 5 5 5 5 6 6 7 9 9 8 6 6 5 4 4
9 9 9 9 9 8 6 3 2 1 2 2 2 3 3 3 3 3 4 4 4 4 5 5 7 8 8 7 5 4 4 5 5 6 7 8 9 9 8 7 6 5 5
8 8 8 8 8 7 6 4 2 2 2 2 2 3 3 3 3 3 4 4 4 4 4 4 5 7 8 7 6 5 4 4 5 6 7 8 9 10 10 8 7 6 6
7 7 8 8 8 7 6 4 3 2 2 2 2 2 3 3 3 4 4 4 4 4 4 4 4 5 7 7 7 6 5 5 5 6 7 8 9 10 11 10 9 8 7
7 7 7 7 7 7 6 5 3 2 2 2 2 2 2 3 3 3 3 4 4 4 4 4 4 4 5 7 7 7 6 5 6 6 7 8 9 10 11 11 10 9 8
7 7 7 7 7 6 6 5 4 3 2 2 2 2 2 2 3 3 3 3 3 3 3 3 3 4 4 6 8 8 7 6 6 6 7 8 8 9 10 10 10 10 10
8 8 8 7 7 6 5 4 3 3 3 3 3 2 2 2 2 3 3 3 3 3 3 3 3 4 5 6 8 8 8 7 6 6 7 8 8 9 9 10 10 10 10
9 9 9 8 7 7 5 4 4 4 3 3 3 3 3 3 3 3 3 2 2 2 2 3 3 4 4 6 8 9 8 7 7 6 7 7 8 8 9 9 10 10 10
10 10 9 9 8 7 6 5 4 4 3 3 3 4 4 4 4 4 3 3 2 2 3 3 3 3 4 5 7 8 8 8 7 6 6 7 7 8 8 8 9 9 9
11 11 10 10 9 8 7 6 5 4 4 3 3 4 5 5 5 5 4 4 3 3 3 3 3 4 4 5 7 8 8 8 8 7 6 6 7 7 7 7 8 8 8
12 12 12 11 10 10 9 8 7 6 5 3 3 3 4 4 4 4 4 4 4 5 4 4 4 4 5 6 7 8 8 8 8 8 7 6 6 6 6 6 7 7 7
13 13 13 13 12 11 10 9 8 8 6 4 3 3 4 4 4 4 4 4 5 5 5 5 5 5 6 6 7 8 8 8 8 8 8 7 6 6 6 6 6 7 7
14 14 14 14 14 13 12 11 10 9 8 6 4 4 4 4 4 4 4 4 4 5 5 5 5 6 6 7 7 7 7 7 7 7 7 7 7 7 6 6 6 7 7
15 15 15 16 15 15 14 12 11 10 9 7 6 5 4 4 4 3 3 4 4 4 4 4 5 5 6 6 6 7 6 6 6 6 6 6 6 6 6 6 6 6 6
16 16 17 17 17 17 16 14 13 12 10 8 7 7 6 5 4 3 3 3 3 3 3 3 4 5 5 5 5 5 5 5 5 4 4 4 4 4 5 5 5 5 5
18 18 18 19 18 18 17 15 14 12 11 10 9 9 8 6 5 4 4 4 3 3 3 3 4 4 4 5 5 5 5 4 4 4 4 4 4 4 4 4 4 4 5
19 19 19 19 19 18 17 16 14 13 12 12 12 11 10 8 7 6 5 4 4 3 3 3 4 4 4 4 5 5 5 5 5 4 4 4 4 4 4 4 5 5 5
19 19 19 19 19 19 18 16 15 14 14 14 13 12 11 10 9 9 8 6 5 4 4 3 4 4 5 5 5 5 5 5 5 5 5 5 5 5 5 5 5 5 5
18 18 19 19 19 19 18 17 16 16 16 16 14 13 12 11 11 11 10 9 7 6 5 4 4 5 5 5 5 5 5 5 5 5 5 5 4 4 4 5 5 5 5
16 17 18 18 19 19 18 17 17 17 17 16 15 14 13 12 11 11 10 9 9 8 7 6 6 6 6 6 6 5 5 5 5 5 5 4 4 4 4 5 5 5 5
15 16 16 17 18 18 18 18 18 18 17 17 16 15 14 12 11 10 10 9 9 9 8 8 7 7 6 6 6 6 5 5 5 5 5 5 4 4 5 5 5 5 6
15 15 15 16 17 18 18 18 18 18 17 17 16 16 15 14 13 12 11 10 10 9 9 8 8 8 7 7 7 6 6 5 5 5 5 5 5 5 5 5 5 6 6
16 16 16 15 16 17 18 18 18 18 17 17 17 16 16 15 14 13 13 12 12 11 9 9 9 8 8 8 7 6 6 6 6 5 5 5 5 5 5 5 5 5 6